Temp_Advection
nan nan nan nan nan nan nan nan nan nan nan nan nan nan nan nan nan nan nan nan nan nan nan nan nan nan nan nan nan nan nan nan nan nan nan nan nan nan nan nan nan nan nan
nan -1 -1 -1 0 0 -0 -0 0 0 0 0 -0 -0 -0 -0 -0 -0 -0 1 -0 -0 -0 0 0 -0 -0 -0 -0 -0 -0 -0 -0 -0 -0 -0 -0 -0 -0 -0 -0 -0 nan
nan 0 0 -1 0 0 0 0 -0 -0 0 -0 -0 -0 -0 -0 -0 -0 -0 0 0 0 -0 -0 0 0 0 -0 -0 0 0 0 -0 -0 -0 -0 -0 -0 -0 -0 -0 -0 nan
nan -0 1 1 -1 -0 -0 -0 -0 0 -0 -0 -0 0 -0 0 -0 -0 -0 -0 0 0 -0 -0 -0 -0 0 0 -0 0 0 0 0 0 0 0 0 -0 -0 -0 -0 -0 nan
nan 0 1 -0 -1 0 -0 -0 -0 0 -0 -0 0 0 -0 0 0 0 -0 -0 0 -0 0 0 0 0 0 -0 0 0 -0 -0 0 0 -0 0 0 0 -0 -0 -0 -0 nan
nan 1 1 -1 0 0 -0 -0 0 -0 -0 -0 0 0 0 0 0 -0 -0 0 -0 -0 0 0 0 0 0 0 0 0 0 -0 -0 -0 0 -0 -0 -0 0 -0 -0 -0 nan
nan 1 -1 -0 0 -0 0 -0 0 -0 0 0 0 -0 -0 0 -0 -0 0 0 -0 0 0 0 -0 -0 0 0 0 0 0 0 0 -0 -0 0 -0 -0 -0 -0 -0 -0 nan
nan 0 -1 1 0 0 -1 -0 0 -0 -0 -0 -0 -0 -0 -0 -0 -0 -0 -0 0 0 -0 -0 0 0 0 0 -0 0 0 0 0 0 0 -0 -0 0 -0 -0 0 0 nan
nan 0 1 1 0 -0 -0 0 -0 -0 -0 0 -0 -0 -0 -0 0 -0 -0 0 -0 -0 0 0 0 1 0 0 0 0 0 0 0 0 0 0 0 0 0 0 -0 0 nan
nan 0 2 1 1 0 0 0 -0 -0 0 0 -0 0 0 0 -0 0 0 -0 0 -0 0 1 0 0 0 0 0 1 1 0 0 0 0 0 0 0 0 0 0 -0 nan
nan 1 1 0 0 -0 1 0 -0 -0 0 0 0 -0 0 0 0 -0 -0 1 0 0 0 1 0 -0 0 0 0 1 1 0 0 1 0 0 0 1 0 0 0 1 nan
nan 1 0 -0 -1 -1 0 -1 -0 -0 0 1 0 0 0 0 0 0 -0 0 1 0 0 0 -0 -0 -0 0 1 1 1 1 0 0 1 0 0 1 1 1 0 -0 nan
nan -0 -1 -1 -2 0 -0 0 1 -1 0 0 0 0 0 -0 -0 -0 1 0 0 -0 -0 0 0 0 -0 0 0 0 1 1 0 0 0 1 1 0 1 1 1 0 nan
nan -1 -1 -0 0 0 0 2 -1 -1 0 -0 0 1 0 0 -1 -1 1 1 1 -0 -0 1 0 -0 0 0 0 1 1 0 0 1 1 0 0 1 1 1 0 0 nan
nan 0 1 1 0 0 1 -0 -2 1 1 0 0 1 0 0 -0 -0 0 1 1 0 0 0 -0 0 0 0 1 1 0 0 0 0 1 1 1 1 0 0 0 0 nan
nan 0 0 0 1 0 0 -0 0 1 0 0 0 -0 -1 -1 0 1 1 0 1 1 0 -0 0 1 0 1 1 1 0 0 1 0 1 1 1 0 -0 0 0 0 nan
nan -0 1 0 -0 -0 -0 0 0 0 -0 0 -0 -2 -1 1 1 1 1 1 1 1 0 0 0 1 1 1 1 1 0 1 1 -0 0 0 0 0 0 0 0 0 nan
nan 0 0 -0 -0 -0 -0 -0 -0 -1 0 1 -1 -2 1 1 1 0 0 0 0 1 0 1 1 1 1 1 1 0 1 1 1 -1 -1 1 0 0 0 0 0 0 nan
nan -0 -1 -1 -1 -1 -1 0 -1 1 1 -1 -1 0 1 1 0 -0 0 1 1 0 1 1 2 1 1 1 1 0 1 1 -0 -1 -1 0 0 0 0 0 0 0 nan
nan -1 -1 -0 -1 -1 1 -1 -3 0 1 0 1 1 0 1 1 0 0 0 1 1 1 2 1 0 1 1 1 1 1 0 -0 -1 -1 -0 0 -0 -0 -0 0 0 nan
nan 1 1 -0 -1 -0 1 -0 -0 1 1 2 1 -0 0 0 0 0 0 1 1 2 2 1 1 1 1 1 1 0 0 0 -1 -1 -0 -0 -0 -0 -0 -1 -1 -0 nan
nan 1 1 1 -0 -1 0 0 1 1 1 0 1 1 1 0 0 0 1 2 2 2 1 2 2 2 1 1 0 0 0 -0 -0 -0 -1 -1 -1 -0 1 -1 -2 -0 nan
nan 0 0 0 -0 -1 -2 1 1 0 -0 0 0 1 0 1 1 1 3 3 2 2 2 1 2 1 1 0 0 0 1 0 -0 0 0 -0 -1 -0 -0 -1 -2 -1 nan
nan 0 -0 -0 -1 -2 -0 1 0 -0 0 1 1 0 1 2 2 4 3 2 2 2 1 1 1 0 0 0 0 1 1 0 0 0 0 -0 -0 0 -0 -1 -2 -1 nan
nan -0 -0 -0 -0 -0 0 0 0 0 1 1 1 1 3 3 4 3 2 1 1 1 1 0 0 0 0 0 1 1 1 1 -0 -0 0 -0 -0 -0 -0 -0 -0 -0 nan
nan nan nan nan nan nan nan nan nan nan nan nan nan nan nan nan nan nan nan nan nan nan nan nan nan nan nan nan nan nan nan nan nan nan nan nan nan nan nan nan nan nan nan
Wind_Speed
37 36 28 26 25 23 22 20 16 18 18 17 15 15 13 13 15 13 13 14 12 11 10 10 10 9 8 9 9 8 8 9 9 10 9 11 13 13 13 14 14 14 13
37 34 32 26 25 24 22 19 19 18 17 15 15 14 12 12 12 13 11 12 11 9 9 6 6 7 7 7 6 5 5 5 7 8 7 8 10 11 12 13 13 14 13
33 33 32 28 23 22 21 20 18 17 16 15 14 15 12 11 10 10 10 8 8 8 7 7 5 2 3 3 2 3 3 5 6 6 6 7 8 9 10 12 12 12 13
31 30 32 28 24 25 23 20 20 20 16 15 14 13 11 10 10 9 10 10 9 9 6 5 5 4 2 2 2 2 2 4 5 6 6 7 7 8 10 12 12 12 12
32 32 30 24 30 28 22 22 22 17 17 15 14 12 11 10 10 10 10 9 12 12 11 11 9 8 8 6 5 6 6 6 5 6 6 7 9 9 10 12 13 14 14
35 36 31 32 31 26 25 25 23 17 16 16 12 11 10 9 10 10 11 11 13 13 13 13 13 14 14 12 10 9 10 11 10 9 9 8 9 12 13 13 14 15 15
39 37 29 33 32 29 26 23 21 19 17 16 12 11 11 11 11 13 14 14 15 15 15 15 15 13 17 16 14 13 13 14 15 15 14 14 12 13 14 15 16 17 17
40 41 38 35 32 30 22 22 22 18 18 18 13 10 8 11 16 18 17 18 19 17 19 19 19 19 17 16 18 17 17 16 16 19 19 20 20 20 19 19 19 20 20
40 40 37 36 34 28 25 24 19 18 16 16 17 11 7 10 8 10 13 17 18 20 22 20 22 23 23 23 22 22 21 20 19 19 20 23 25 26 26 26 26 25 23
41 39 38 35 32 28 29 22 20 22 18 17 18 21 19 13 11 9 11 15 17 19 19 22 22 24 24 24 26 26 27 23 23 23 24 23 23 25 27 30 30 33 29
39 39 40 38 34 32 29 24 27 27 22 20 21 17 20 21 22 19 21 18 18 21 23 23 21 21 21 22 28 29 28 26 26 25 28 28 28 29 27 27 31 31 29
50 45 42 38 34 36 31 28 27 26 29 27 23 21 18 15 15 17 20 24 25 21 26 27 24 22 23 24 27 28 25 27 28 28 29 30 31 34 35 32 29 33 33
51 54 49 42 42 44 36 35 33 30 33 28 26 20 20 21 20 22 25 29 29 30 34 33 30 25 27 23 24 24 25 26 29 29 28 30 31 34 37 40 38 37 34
45 58 55 49 52 45 43 40 38 38 31 29 27 26 25 24 23 29 27 25 27 30 31 28 23 23 22 22 25 23 25 27 26 26 28 29 32 36 35 32 32 35 35
44 48 48 48 46 44 44 38 40 40 36 35 35 33 27 26 26 30 28 28 27 23 27 20 23 23 24 23 26 22 22 25 26 28 30 32 32 30 30 31 33 34 36
38 38 46 47 46 41 37 37 39 37 34 35 32 31 31 32 34 33 34 34 33 34 24 20 22 24 22 26 24 24 24 26 29 29 29 29 27 28 29 31 33 35 37
42 44 48 45 41 42 41 38 38 37 36 37 35 40 41 39 41 38 35 35 40 35 32 24 24 24 24 23 25 24 26 28 24 27 26 25 26 26 27 29 32 34 37
46 45 43 42 44 46 47 42 40 39 40 36 36 42 40 30 31 35 30 42 45 35 31 30 29 26 23 23 26 27 25 23 20 20 23 22 24 26 29 30 32 33 35
41 40 41 44 47 53 58 57 52 46 35 37 37 38 38 37 37 39 40 42 36 31 30 29 24 23 23 27 24 23 23 18 17 21 23 24 25 26 25 26 26 29 32
43 45 48 50 49 50 50 42 44 43 45 49 49 50 48 40 42 50 43 35 30 32 29 26 23 24 23 22 20 16 13 14 15 19 23 22 23 22 23 26 26 29 32
44 42 42 44 43 44 44 42 42 46 44 44 38 38 38 39 36 32 33 32 32 32 32 25 25 23 21 19 16 11 13 14 16 19 20 18 20 23 26 26 30 32 34
38 36 37 37 37 42 39 40 44 36 35 33 33 35 35 37 34 32 32 32 34 34 29 26 23 20 17 14 13 13 12 12 13 12 18 19 22 24 23 24 29 32 34
34 36 34 33 35 35 39 35 32 31 33 34 34 39 35 37 38 36 36 32 29 28 24 22 20 18 16 15 15 15 14 13 14 15 18 20 19 21 20 23 30 33 35
30 32 34 34 36 39 36 33 34 33 36 36 38 35 35 37 37 36 32 31 26 23 21 19 17 17 17 18 17 17 16 17 17 17 16 20 16 21 22 23 31 29 29
29 29 30 29 30 27 27 28 30 33 34 32 33 34 34 35 33 28 24 20 19 17 15 14 16 17 16 17 18 17 15 12 16 15 16 20 16 22 25 27 16 20 25
21 21 25 25 26 28 28 28 28 27 29 32 31 30 27 27 25 22 20 18 16 14 13 15 15 15 15 16 16 17 16 15 14 14 8 17 17 19 18 17 16 23 17
Wind_Direction
172 165 158 165 165 168 167 164 167 158 153 149 146 146 142 143 133 139 148 138 143 137 126 108 98 95 95 89 83 72 58 46 40 33 34 35 39 34 30 26 25 21 17
174 173 170 164 166 175 172 170 169 165 158 159 156 151 151 148 139 146 156 142 144 146 152 134 92 95 94 97 85 74 59 40 27 23 20 20 21 24 22 18 11 6 5
177 179 176 174 171 173 170 171 171 169 163 162 164 162 160 156 161 153 159 176 171 158 163 167 167 113 73 90 83 58 39 25 20 10 -0 357 0 7 6 5 3 357 351
175 188 185 178 176 177 174 172 175 177 169 167 170 171 172 174 180 177 177 178 196 206 210 199 210 213 227 243 288 313 333 0 7 358 345 336 337 342 350 350 348 346 341
180 193 189 181 183 179 176 178 182 178 172 171 174 178 183 189 201 198 201 204 206 202 218 247 242 237 242 247 265 275 292 305 321 330 335 329 321 318 326 331 334 337 335
190 198 191 189 183 181 182 182 184 177 180 178 176 186 191 206 213 215 221 222 224 228 221 219 245 239 241 248 255 262 250 267 294 302 302 307 311 310 304 315 320 324 326
198 204 193 192 189 187 186 189 190 185 187 185 185 199 214 226 235 236 239 241 240 243 238 234 229 232 257 259 249 252 253 244 249 274 284 290 297 301 303 300 304 309 312
203 203 201 196 195 194 192 203 202 202 202 206 195 198 221 233 242 243 242 247 245 241 249 251 252 245 242 251 261 257 253 255 248 248 262 280 289 293 289 292 293 296 297
206 205 202 203 200 199 205 209 212 223 228 231 227 227 216 238 226 233 248 248 250 253 253 257 257 259 256 256 262 261 255 254 255 253 252 256 270 277 287 291 289 288 286
208 208 206 205 204 209 216 219 225 239 237 236 242 240 233 240 242 257 246 260 258 254 253 255 258 258 257 261 262 260 261 259 259 257 258 255 257 265 270 268 278 286 285
206 207 209 210 212 216 226 226 223 236 239 238 248 255 253 254 256 254 266 259 262 259 264 253 252 261 258 264 262 261 261 255 260 262 260 259 264 262 262 269 273 264 268
203 207 210 210 215 223 228 225 227 232 232 246 247 250 248 252 255 250 258 264 263 258 265 273 256 258 253 260 262 257 254 253 257 266 263 257 263 267 266 266 264 271 275
204 204 207 213 218 222 233 234 233 235 242 247 250 252 257 260 257 266 265 266 262 266 276 274 274 257 259 257 258 257 255 259 261 266 263 261 265 269 269 269 267 264 267
208 205 210 222 227 227 234 236 236 243 242 248 257 259 264 266 260 270 267 262 259 264 266 261 252 262 244 250 255 256 258 260 260 258 259 264 272 275 268 268 267 270 267
214 218 224 220 222 224 230 232 241 244 247 254 259 266 266 268 258 261 260 256 249 254 262 253 257 250 245 252 254 251 250 262 263 269 268 277 283 272 267 269 269 270 272
212 217 218 218 221 224 228 238 243 246 246 250 254 257 265 271 271 266 257 250 254 260 248 245 256 247 241 245 250 249 256 269 269 271 273 277 276 272 271 273 275 275 275
215 215 218 219 222 227 233 239 242 245 248 253 251 259 267 274 269 259 254 259 263 255 242 246 240 238 240 247 249 249 263 270 274 275 271 271 274 274 274 276 276 276 277
221 224 223 225 229 232 235 237 241 247 248 247 249 261 265 273 269 270 258 249 259 252 240 249 238 237 242 243 239 255 269 270 264 261 274 274 276 278 279 281 283 285 285
222 223 225 230 234 238 242 244 246 251 244 249 257 266 271 266 267 261 253 257 253 239 237 239 234 231 230 240 250 264 271 261 258 266 276 277 278 281 283 284 288 289 291
225 227 230 234 236 238 241 235 240 252 253 256 261 260 265 261 250 249 254 252 242 234 231 229 227 244 244 249 257 256 252 257 261 273 280 282 282 285 288 289 294 297 297
233 232 232 234 240 241 244 243 243 249 255 255 263 259 250 250 255 239 243 243 236 232 225 228 235 238 242 249 258 242 249 265 274 281 281 282 289 294 296 299 304 303 305
230 230 230 231 232 238 243 244 247 252 248 248 262 259 251 251 237 237 239 236 235 224 223 228 232 239 246 224 236 249 257 268 280 275 280 286 293 294 295 293 299 302 304
228 230 231 232 236 239 246 245 251 254 254 262 266 258 243 247 232 231 235 221 216 221 226 234 234 233 233 240 247 256 264 263 266 270 280 283 290 285 289 290 297 305 307
226 227 230 232 237 246 258 256 259 260 255 259 256 248 244 237 228 225 216 209 209 215 220 230 239 245 244 252 260 261 262 269 276 283 282 281 285 283 293 291 299 306 310
224 229 235 245 248 254 257 258 252 253 253 252 242 238 236 228 221 205 201 214 215 221 230 238 246 252 256 261 266 266 270 269 276 280 278 281 289 292 295 298 298 292 293
236 236 239 244 248 252 253 255 256 250 245 238 228 223 210 208 200 200 200 204 217 230 240 243 249 257 264 267 269 273 271 273 278 291 274 285 290 307 304 290 293 307 302
Height
1541 1546 1552 1559 1563 1568 1571 1573 1574 1575 1577 1579 1581 1583 1585 1587 1587 1590 1590 1589 1592 1592 1593 1593 1593 1595 1595 1594 1594 1595 1594 1593 1592 1592 1592 1593 1593 1592 1592 1591 1590 1590 1589
1540 1545 1551 1557 1562 1568 1570 1573 1574 1576 1577 1580 1581 1583 1586 1587 1587 1591 1591 1590 1592 1593 1594 1594 1594 1594 1596 1596 1596 1596 1595 1594 1593 1592 1592 1593 1593 1593 1592 1591 1590 1589 1588
1540 1545 1551 1555 1561 1566 1568 1572 1573 1576 1576 1579 1580 1582 1584 1586 1588 1589 1592 1593 1592 1592 1594 1595 1595 1594 1595 1596 1596 1596 1596 1595 1594 1593 1593 1593 1593 1592 1592 1591 1590 1590 1588
1542 1546 1550 1555 1559 1562 1566 1569 1572 1574 1575 1578 1579 1581 1583 1585 1587 1588 1591 1592 1594 1594 1592 1592 1593 1593 1594 1595 1595 1595 1594 1594 1593 1592 1592 1592 1592 1591 1591 1591 1590 1588 1587
1541 1545 1549 1554 1557 1561 1565 1568 1572 1573 1573 1576 1579 1580 1582 1584 1585 1586 1587 1588 1591 1591 1593 1590 1591 1591 1593 1593 1593 1593 1591 1591 1591 1590 1591 1591 1591 1591 1590 1589 1588 1587 1585
1541 1545 1548 1552 1556 1560 1564 1567 1570 1571 1574 1575 1578 1579 1580 1582 1583 1583 1584 1585 1586 1587 1589 1591 1588 1588 1589 1590 1590 1589 1589 1589 1588 1588 1588 1588 1588 1589 1588 1587 1586 1584 1583
1541 1543 1547 1550 1554 1559 1563 1565 1567 1570 1572 1574 1575 1578 1578 1579 1579 1580 1581 1581 1582 1583 1584 1585 1586 1587 1586 1586 1586 1586 1586 1586 1586 1584 1584 1584 1585 1585 1585 1584 1583 1581 1580
1536 1540 1545 1549 1553 1557 1560 1563 1565 1567 1570 1571 1573 1575 1576 1577 1575 1576 1577 1577 1577 1578 1580 1580 1581 1582 1583 1585 1582 1583 1582 1582 1582 1582 1581 1580 1580 1580 1581 1580 1578 1577 1576
1533 1537 1542 1547 1551 1554 1557 1561 1562 1564 1567 1568 1569 1572 1571 1570 1572 1572 1571 1573 1573 1573 1574 1575 1575 1576 1577 1577 1577 1577 1577 1577 1577 1578 1579 1579 1577 1576 1575 1574 1573 1572 1571
1528 1534 1539 1544 1547 1552 1554 1557 1559 1562 1562 1564 1565 1567 1567 1567 1568 1569 1568 1568 1568 1568 1569 1570 1570 1571 1571 1571 1570 1571 1570 1572 1572 1572 1573 1574 1574 1573 1571 1569 1567 1566 1564
1523 1528 1534 1539 1544 1547 1550 1553 1555 1557 1558 1561 1561 1563 1562 1563 1563 1565 1565 1566 1563 1564 1564 1564 1564 1564 1564 1565 1563 1564 1564 1565 1566 1566 1567 1567 1568 1569 1568 1566 1563 1560 1560
1519 1523 1529 1535 1538 1541 1545 1548 1549 1552 1554 1555 1557 1558 1558 1558 1557 1558 1559 1559 1560 1558 1558 1558 1558 1557 1557 1557 1556 1556 1558 1558 1559 1558 1558 1559 1559 1560 1559 1558 1558 1555 1554
1512 1517 1523 1527 1530 1534 1540 1542 1545 1546 1548 1550 1551 1551 1552 1551 1552 1550 1550 1550 1549 1549 1548 1551 1550 1551 1551 1550 1549 1550 1551 1552 1552 1552 1551 1552 1552 1552 1551 1549 1549 1549 1549
1503 1510 1515 1520 1524 1528 1533 1536 1538 1539 1541 1542 1543 1544 1544 1544 1544 1543 1541 1541 1540 1542 1542 1544 1544 1545 1544 1543 1543 1544 1543 1544 1543 1543 1543 1543 1544 1543 1541 1540 1540 1540 1540
1499 1504 1508 1512 1517 1521 1525 1528 1529 1531 1533 1535 1535 1535 1536 1536 1536 1536 1535 1534 1536 1535 1533 1534 1537 1536 1537 1537 1536 1537 1537 1536 1536 1537 1536 1536 1535 1533 1533 1533 1533 1532 1531
1492 1495 1499 1504 1509 1514 1517 1520 1521 1524 1526 1527 1527 1528 1528 1529 1528 1527 1528 1527 1528 1528 1526 1526 1527 1528 1529 1529 1530 1529 1530 1530 1529 1528 1528 1527 1527 1526 1526 1525 1524 1523 1522
1483 1486 1491 1496 1501 1505 1508 1511 1512 1515 1518 1518 1518 1516 1518 1519 1518 1518 1519 1520 1519 1518 1517 1517 1519 1520 1520 1523 1524 1523 1522 1522 1522 1520 1520 1520 1519 1519 1518 1517 1516 1514 1512
1475 1479 1485 1489 1493 1496 1498 1501 1504 1505 1507 1507 1508 1506 1508 1509 1510 1509 1503 1509 1509 1508 1508 1509 1511 1512 1515 1514 1517 1516 1516 1516 1516 1514 1513 1513 1512 1510 1509 1508 1506 1505 1502
1463 1469 1475 1478 1481 1484 1487 1490 1492 1494 1496 1496 1497 1496 1498 1499 1498 1500 1500 1499 1499 1499 1500 1502 1504 1505 1508 1507 1509 1509 1509 1508 1508 1507 1506 1505 1503 1502 1501 1499 1498 1496 1492
1454 1458 1462 1465 1469 1472 1474 1477 1479 1482 1484 1484 1485 1485 1486 1486 1487 1487 1491 1491 1491 1492 1493 1495 1496 1498 1499 1501 1502 1503 1504 1504 1503 1501 1499 1497 1496 1495 1493 1491 1490 1486 1482
1447 1450 1453 1455 1458 1461 1464 1467 1470 1471 1473 1473 1472 1473 1472 1476 1476 1478 1479 1480 1482 1484 1484 1486 1488 1489 1492 1495 1495 1498 1498 1497 1496 1494 1492 1490 1488 1486 1485 1481 1479 1476 1472
1438 1443 1445 1448 1450 1450 1453 1457 1461 1462 1462 1462 1462 1463 1464 1467 1467 1469 1470 1471 1473 1474 1476 1477 1480 1483 1486 1489 1490 1491 1491 1491 1491 1489 1485 1484 1482 1478 1477 1474 1471 1468 1464
1429 1432 1436 1440 1441 1444 1445 1450 1453 1453 1453 1453 1452 1453 1455 1456 1457 1458 1460 1462 1465 1468 1471 1472 1474 1477 1480 1481 1482 1483 1484 1483 1482 1482 1479 1475 1474 1471 1470 1466 1462 1458 1453
1419 1422 1425 1429 1433 1433 1436 1441 1443 1443 1443 1443 1443 1444 1446 1447 1448 1449 1451 1455 1457 1461 1464 1468 1471 1471 1473 1474 1475 1476 1476 1475 1474 1473 1472 1467 1467 1463 1460 1457 1452 1448 1444
1409 1413 1417 1420 1423 1425 1427 1430 1431 1432 1432 1433 1435 1436 1439 1440 1443 1446 1445 1454 1454 1458 1461 1464 1467 1466 1467 1468 1469 1469 1469 1469 1466 1466 1465 1460 1459 1455 1451 1446 1445 1442 1436
1404 1407 1410 1413 1415 1417 1419 1420 1422 1423 1424 1426 1427 1430 1434 1437 1440 1446 1442 1443 1450 1455 1458 1461 1462 1461 1461 1461 1463 1463 1463 1462 1462 1460 1459 1454 1451 1450 1441 1439 1437 1434 1431